LFOPLFRG

Guest
Details From LFOP - Rouen Vallee de la Seine
To LFRG - Deauville Saint Gatien
Flight Number -
Tags generated
Created
Modified
Stats Distance 41 nm / 75 km
Max Altitude 3,800 ft / 1,158 m
Waypoints 3
Social Downloads 2
Likes 0
Share VATSIM

Download

Looking for another format? Having issues loading an existing format? Contact us
Advertisement - Login to hide

Notes

Basic altitude profile: - Ascent Rate: 2500ft/min - Ascent Speed: 250kts - Cruise Altitude: 35000ft - Cruise Speed: 420kts - Descent Rate: 1500ft/min - Descent Speed: 250kts Options: - Use NATs: yes - Use PACOTS: yes - Use low airways: yes - Use high airways: yes

Route

LFOP KEREX LFRG

ID Type Via Altitude Latitude Longitude Leg Dist Tot Dist Heading (true) Name
O LFOP APT - 0 ft / 0 m 49.38521˚ 1.17619˚ - 0 nm - Rouen Vallee de la Seine
KEREX FIX - 3,800 ft / 1,158 m 49.32661˚ 0.91314˚ 10 nm 10 nm 251° / 251° -
O LFRG APT - 0 ft / 0 m 49.36530˚ 0.15432˚ 29 nm 40 nm 275° / 274° Deauville Saint Gatien

Altitude Profile

Advertisement - Login to hide

LFOP

Details ICAO LFOP (URO)
Name Rouen Vallee de la Seine
Region France
Timezone Europe/Paris (UTC+2.0)
Stats Elevation 512 ft / 156 m (AMSL)
Location 49.385211° 1.176192°
Runways 1
Magnetic Variation 0.244° E

METAR

LFOP 231800Z AUTO 03007KT 7000 OVC011 15/12 Q1019 TEMPO BKN020

Decode

TAF

TAF LFOP 231700Z 2318/2418 02008KT 8000 BKN012 TEMPO 2318/2323 BKN020 BECMG 2323/2402 3000 BR OVC005 PROB40 TEMPO 2400/2409 1200 OVC002 BECMG 2410/2412 9999 NSW SCT020 TEMPO 2413/2418 4000 SHRA BKN030CB

Decode

Departure Runways

ID Width Length Bearing (true) Bearing (mag) Surface Threshold Offset Overrun Length
04 148 ft / 45 m 5,577 ft / 1,700 m 41.28° 41.04° Asphalt 0 ft / 0 m 0 ft / 0 m
22 148 ft / 45 m 5,577 ft / 1,700 m 221.29° 221.05° Asphalt 0 ft / 0 m 0 ft / 0 m

LFRG

Details ICAO LFRG (DOL)
Name Deauville Saint Gatien
Region France
Timezone Europe/Paris (UTC+2.0)
Stats Elevation 479 ft / 146 m (AMSL)
Location 49.365296° 0.154324°
Runways 1
Magnetic Variation 0.081° W

METAR

LFRG 231800Z AUTO 05007KT 010V090 5000 BR OVC007 13/11 Q1020 NOSIG

Decode

TAF

Not found

Destination Runways

ID Width Length Bearing (true) Bearing (mag) Surface Threshold Offset Overrun Length
12 148 ft / 45 m 8,344 ft / 2,543 m 117.22° 117.30° Asphalt 1,476 ft / 450 m 0 ft / 0 m
30 148 ft / 45 m 8,344 ft / 2,543 m 297.25° 297.33° Asphalt 1,378 ft / 420 m 0 ft / 0 m

Approach Navaids

Runway Type Ident Frequency Range Bearing (true) Bearing (mag) Slope Elevation
30 Localiser DV 111.55 MHz 18 nm / 33 km 297.22° 297.30° - 479 ft / 146 m (AMSL)
30 Glidescope DV 111.55 MHz 10 nm / 19 km 297.23° 297.32° 3.00° 479 ft / 146 m (AMSL)
30 DME DV 111.55 MHz 18 nm / 33 km - - - 466 ft / 142 m (AMSL)

Popular Alternatives